Карточка аэропорта USNN

Внимание!
Информация на этой странице в стадии наполнения.
Если вы не увидели какой-то информации, или заметили неточность - пожалуйста сообщите нам!
Спасибо!
Команда RU-STAFF
Название аэропортаНижневартовск
Название аэропорта (англ.)Nizhnevartovsk
Превышение177 ft. (53.9 m.)
Координаты60°57', 76°28.998'
Высота перехода800m
Эшелон переходаQFE>=756mm:FL040; QFE<756=>729:FL050; QFE<729:FL060
Коды ответчика5630-5633
Зона ОрВДТюмень РПИ (USTV)
Данные METARUSNN 250930Z 01002MPS 9999 OVC003 15/15 Q1000 R03/290151 NOSIG RMK QFE746
Проноз погоды (TAF)USNN 250756Z 2509/2609 04003G08MPS 6000 -SHRA BKN006 BKN016CB TEMPO 2509/2512 BKN004 BKN014CB BECMG 2512/2513 9999 NSW FEW007 BKN016CB BECMG 2513/2514 23003G08MPS TEMPO 2515/2603 0300 FG VV002
NOTAMshow/hide NOTAM
AWOS   TABLE

Информация о ВПП

ВПП Длина ВПП (м.) Покрытие Курс ВПП Частота ILS
033200Асфальтобетон26110.5
213200Асфальтобетон206111.9

Диспетчерские позиции

Позывной Наименование органа УВД Частота
USNN_TWRНижневартовск - Вышка118.100
USNN_APPНижневартовск - Круг120.400



Спутниковое изображение